铱星星座 102星 (IRIDIUM 102)

导读

IRIDIUM 102(铱星下一代102)是美国铱星星座的第二代通信卫星,由阿莱尼亚宇航公司与轨道科学公司联合研发。它于2017年1月14日在美国范登堡空军基地,由猎鹰9号v1.2火箭发射升空。 卫星运行在780公里近极地圆轨道,倾角86.4°,重860kg,设计寿命10年,计划服役15年,主要承担全球通信服务,同时具备遥感交通监测功能,是铱星系统全球覆盖的重要组成部分。

基本信息
目录编号:
41920
目录名称:
IRIDIUM 102
国际标识:
2017-003D
轨道中心:
EARTH
卫星名称:
铱星星座 102星
卫星全名:
铱星星座 102星 (IRIDIUM 102)
卫星状态:
在轨 (已飞行3436 天)
发射日期:
2017-01-14 UTC
国别 :
美国 (US)
星等 :
--
轨道信息
数据来源 国际轨道数据 AOE轨道数据
星历时间 2026-06-12T13:50:30+0800
14小时前
查看轨道信息
2026-06-12T04:00:00+0800
23小时前
查看轨道信息
半长轴 7155.805km 7155.804km
偏心率 0.0002229 0.0002251
轨道倾角 86.396° 86.395°
近地点辐角 85.774° 90.481°
升交点赤经 90.506° 90.677°
平近点角 274.371° 313.724°
近地点 776.072km 776.056km
远地点 779.264km 779.278km
周期 100.403分钟 100.403分钟
每日圈数 14.342176 14.34218
详细信息
平衡模式:
三轴稳定
覆盖范围:
全球
运营商:
铱星通信公司
运营商所在国:
美国
制造商(研发单位):
阿莱尼亚宇航公司
制造商所在国:
意大利
使用方式:
暂无
卫星简介
铱星(Iridium)是由共66个运作中的通信卫星组成的卫星通信系统。这个系统原本规划77个通信卫星,所以用原子序数为77的铱元素来命名。铱卫星允许人们使用手持型电子设备进行全球性的语音及数据通讯。该卫星仍在工作。
2D轨道图
3D轨道图
轨道高度分析图
轨道倾角分析图
轨道综合分析图
查看轨道综合分析图